Simultaneous Nadir Overpasses (SNOs) Predictions

Prediction of SNOs between GOES-15 and METOP-C Satellite Orbit:

Table of predicted SNOs for the next 14.0 days since TLE Epoch: 4/18/2025
Index Date Time (GOES-15) GOES-15 Lat,Lon METOP-C Lat,Lon Distance(km) Time Diff (sec)
1 04/19/2025 05:25:52 -0.16, 61.40 -0.16, 61.50 10.17 80
2 04/21/2025 17:24:10 0.16, 61.40 0.29, 61.89 57.03 80
3 04/23/2025 05:40:19 -0.17, 61.46 0.76, 57.34 469.04 80
4 04/24/2025 05:22:19 -0.17, 61.47 -0.38, 62.34 99.06 80
5 04/25/2025 17:41:16 0.17, 61.46 -0.66, 57.75 422.10 80
6 04/26/2025 17:20:34 0.17, 61.47 0.43, 62.76 145.68 79
7 04/28/2025 05:36:45 -0.17, 61.54 0.55, 58.19 381.30 80
8 04/29/2025 05:18:44 -0.18, 61.57 -0.54, 63.20 185.96 80
9 04/30/2025 17:37:41 0.18, 61.56 -0.48, 58.61 336.39 80
10 05/01/2025 17:14:19 0.19, 61.59 0.61, 63.61 230.49 80
